THORAD DELTA 1 DEB, 8554

Orbit data source: Space-Track

THORAD DELTA 1 DEB, 8554 is space debris in SSO originally from a launch on Fri, 15 Nov 1974 UTC launched from the Air Force Western Test Range (AFWTR). Debris objects in space refer to the collection of defunct objects orbiting the Earth. Examples of debris include non-operational satellites, rocket bodies, and fragments generated from explosions, collisions, or faulty payload assembly.

Loading next visibility...
Identifier
8554, 1974-089CR
Orbit
SSO
Country
Flag of USUS
Related business
Manufacturer
Unknown
Mission
Spacecraft
Bus & Motor
Unknown
Mass
Unknown
Launch date (UTC)
1974-11-15 (51 years ago)
Launch vehicle
Unknown
Launch site
Air Force Western Test Range (AFWTR)
Object type
Payload
Rocket body
Debris
Shape & HBR
Unknown shape, 0.1 m
Radar Cross Section
Medium (>0.1 m² and <1 m²)

Expand to show TLE details & history
Last TLE update: 19 hours ago

TLE from 19 hours ago
0 THORAD DELTA 1 DEB
1 08554U 74089CR  26124.89588457  .00000011  00000-0  34494-3 0  9998
2 08554 101.9397 115.6484 0035734  39.8499 332.8396 12.56300461358397
Epoch: 2026-05-04T21:30Z
TLE epoch observation values (Epoch: 2026-05-04T21:30:04.426Z)
Latitude
12.19103°
Longitude
-72.25401°
Altitude
1,415.243 km
Speed
7.165 km/s
True Right ascension
07h 32m 10s
True Declination
12° 07' 34"
Sunlit
Object was in daylight at epoch
Visualization orbit readout
Latitude
Unknown
Longitude
Unknown
Altitude
Unknown
Speed
Unknown
Apparent Right ascension
Unknown
Apparent Declination
Unknown
Sunlit
N/A
Visualization observer readout
Local Sidereal Time
00:13:08
Azimuth
Unknown
Elevation
Unknown
Doppler factor
Unknown
Orbital elements
Apogee altitude
1,463.724 km
Perigee altitude
1,407.879 km
Semi-major axis
7,813.939 km
Eccentricity
0.00357
Inclination
101.9397°
RAAN
115.6484°
Arg. of periapsis
39.8499°
True anomaly
332.65193°
Mean anomaly
332.8396°
Eccentric anomaly
332.74584°
Mean motion
3.14223 °/min
Orbital period
114.57 mins
BSTAR
0.00034494
Loading maneuver chart data...
Computing Atmospheric mass density...

Documentation

Showing up to 5 results
|